Regional Weather Roundup
Issued by NWS Sioux Falls, SD

Home | Current Version | Previous Version | Text Only | Print | Product List | Glossary On
Versions: 1 2 3 4 5 6 7 8 9 10 11 12 13 14 15 16 17 18 19 20 21 22 23 24 25 26 27 28 29 30 31 32 33 34 35 36 37 38 39 40 41 42 43 44 45 46 47 48 49 50
873
ASUS43 KFSD 312010
RWRFSD

WEATHER ROUNDUP FOR SE SOUTH DAKOTA/SW MINNESOTA/NW IOWA
NATIONAL WEATHER SERVICE SIOUX FALLS SD
300 PM CDT TUE MAY 31 2016

NOTE: "FAIR" INDICATES FEW OR NO CLOUDS BELOW 12,000 FEET WITH NO
SIGNIFICANT WEATHER AND OR OBSTRUCTIONS TO VISIBILITY.


SDZ038>040-050-052>070-312100-
SOUTHEAST SOUTH DAKOTA

CITY           SKY/WX    TMP DP  RH WIND       PRES   REMARKS
BROOKINGS      SUNNY     69  45  41 W20G28    29.86F
CHAMBERLAIN    PTSUNNY   75  45  33 W21G26    29.87F
HURON          PTSUNNY   70  47  43 SW18G28   29.84F
MADISON        FAIR      66  46  48 W14G22    29.89F
MITCHELL       SUNNY     72  48  42 SW15G22   29.88F
SIOUX FALLS    CLOUDY    69  46  43 W13G20    29.90F
WINNER         FAIR      74  38  27 W24G35    29.88F
YANKTON        CLOUDY    72  45  37 W10G18    29.91F
$$

MNZ071-072-080-081-089-090-097-098-312100-
SOUTHWEST MINNESOTA

CITY           SKY/WX    TMP DP  RH WIND       PRES   REMARKS
FAIRMONT       CLOUDY    68  57  68 W9        29.89F
JACKSON        PTSUNNY   70  50  49 W12G17    29.91S
LUVERNE        SUNNY     70  43  37 W10G18    29.91F
MARSHALL       SUNNY     71  46  40 W18G26    29.86F
MONTEVIDEO     MOSUNNY   73  48  40 W14G20    29.86S
PIPESTONE      SUNNY     68  46  45 W8G21     29.90S
REDWOOD FALLS  MOSUNNY   72  51  47 W14G22    29.86F
TRACY          SUNNY     71  51  50 W7        29.89S
WINDOM         MOSUNNY   72  54  53 W9        29.89S
WORTHINGTON    SUNNY     69  51  52 W15       29.91F
$$

IAZ001>003-012>014-020>022-031-032-NEZ013-014-SDZ071-312100-
NORTHWEST IOWA

CITY           SKY/WX    TMP DP  RH WIND       PRES   REMARKS
CHEROKEE       PTSUNNY   71  55  58 NW8       29.92F
DENISON        PTSUNNY   70  61  73 NW9       29.90F
ESTHERVILLE    CLOUDY    69  58  67 W15       29.90F
LE MARS        SUNNY     72  54  53 VRB7G16   29.93F
ORANGE CITY    SUNNY     72  52  49 NW10      29.92F
SHELDON        SUNNY     70  52  52 W12       29.90F
SIOUX CITY     SUNNY     75  51  43 N7G18     29.92F
SPENCER        PTSUNNY   70  54  56 W13       29.91F
STORM LAKE       N/A     68  57  68 NW12      29.92F
$$

ABBREVIATIONS USED IN REMARKS
   TC - TEMPERATURE IN CELSIUS
  WCI - WIND CHILL INDEX
   HX - HEAT INDEX
  VSB - VISIBILITY





USA.gov is the U.S. government's official web portal to all federal, state and local government web resources and services.